EHI
4 1 1 3 4 4 3 4 4 4 3 3 3 3 3 3 3 3 3 3 3 3 3 3 3 3 3 3 3 3 3 3 2 1 2 3 3 3 3 1 1 2 4
3 1 1 3 4 3 3 4 4 4 3 3 3 3 3 3 3 3 3 3 3 3 3 3 3 3 3 3 3 3 3 3 3 2 2 3 3 3 3 2 1 2 4
2 1 1 2 3 3 3 3 4 4 4 3 3 3 3 3 3 3 3 3 2 2 3 3 3 3 3 3 3 3 3 3 3 3 3 3 3 2 3 3 3 3 3
1 0 0 1 3 3 3 3 3 4 4 4 3 3 3 3 3 3 3 3 3 3 3 3 3 3 3 3 3 3 3 3 3 3 3 3 3 3 3 3 3 3 3
1 0 0 1 2 3 3 3 3 3 4 3 3 3 3 3 3 2 2 2 2 2 3 3 3 3 3 2 2 2 2 2 3 3 3 3 3 3 3 3 3 3 3
2 1 1 1 3 3 3 3 3 3 3 4 4 3 3 3 1 1 1 1 1 1 1 2 3 3 3 2 1 1 1 1 1 2 2 2 3 3 3 3 3 3 3
7 5 3 2 3 3 3 3 3 3 4 5 5 4 3 2 1 0 0 0 0 0 1 2 2 2 3 3 2 1 1 1 1 1 1 1 1 2 3 3 3 3 3
14 11 7 5 3 3 4 4 5 5 6 6 6 4 3 3 1 0 0 0 0 0 1 2 3 3 3 3 3 2 2 2 1 0 0 0 0 1 2 2 3 3 3
20 19 15 12 9 7 7 7 9 9 7 6 5 4 3 3 2 1 0 0 0 0 1 3 3 3 2 2 2 3 3 3 2 1 1 1 0 0 1 1 1 3 3
26 24 23 23 20 14 13 15 14 11 7 4 4 3 3 3 2 1 0 0 1 1 2 3 3 1 1 1 1 2 3 3 2 2 2 2 1 1 1 0 1 2 2
35 31 30 31 26 18 17 20 17 10 5 3 3 3 3 3 3 1 0 0 1 2 2 3 2 1 0 0 1 2 2 2 2 2 3 3 3 2 2 1 1 1 1
45 39 36 33 26 19 19 20 15 8 5 4 3 3 3 4 3 2 0 0 1 2 2 2 2 1 0 0 0 1 1 0 1 1 1 2 3 3 3 3 2 1 1
48 43 39 35 29 23 20 15 10 7 6 4 4 3 4 4 3 2 1 0 0 1 1 1 1 0 0 0 0 0 0 0 0 0 0 1 1 2 3 3 3 3 2
43 40 36 33 30 26 20 11 6 5 5 4 3 3 3 4 3 2 1 1 1 1 0 1 1 1 0 0 1 1 0 0 0 0 0 0 0 1 3 3 3 3 3
32 30 26 22 20 22 17 9 4 3 3 3 2 3 3 3 2 1 1 1 2 1 1 1 2 1 1 1 2 2 1 1 1 0 0 0 0 1 2 3 3 3 3
20 18 14 10 10 12 11 7 4 3 2 1 1 1 2 1 1 0 0 1 1 1 0 1 1 1 2 2 2 3 3 2 2 1 1 1 1 1 2 3 3 3 3
10 9 6 5 5 5 5 4 3 3 2 1 1 0 0 0 0 0 0 0 0 0 0 0 0 1 1 1 1 2 3 3 3 2 2 2 2 2 3 3 3 3 3
4 4 3 3 3 3 3 3 3 3 3 3 3 1 0 0 0 0 0 0 0 0 0 0 0 0 0 0 0 2 3 3 3 3 3 3 3 3 3 3 3 3 3
2 2 3 3 3 3 3 3 3 3 4 5 5 3 1 1 0 0 0 0 0 0 1 0 0 0 0 0 0 2 3 3 3 3 3 3 2 3 3 3 3 3 3
1 1 2 2 3 3 3 3 3 3 3 4 5 3 2 1 1 1 1 1 0 0 1 1 1 1 1 0 1 1 2 3 3 3 3 3 3 3 3 3 3 3 3
1 0 1 1 1 2 3 3 3 3 3 3 4 3 1 1 2 2 2 2 1 1 1 2 2 2 2 2 2 1 2 3 3 3 3 3 3 3 3 3 3 3 3
0 0 0 0 0 1 2 3 3 3 3 3 3 3 1 1 3 3 3 3 3 2 3 3 3 3 3 3 3 3 3 3 3 3 3 3 3 3 3 3 3 3 3
0 1 1 1 1 1 2 3 3 3 3 3 3 3 3 3 3 3 3 3 3 3 3 3 3 3 3 3 3 3 3 3 3 3 3 3 3 3 3 3 3 3 3
1 2 2 2 2 2 3 3 3 3 3 3 3 3 3 3 3 3 3 3 3 3 3 3 3 3 3 3 3 3 3 3 3 3 3 3 3 3 3 3 3 3 3
3 3 3 3 3 3 3 3 3 3 3 3 3 3 3 3 3 2 2 3 3 3 3 2 2 3 3 3 3 3 2 1 1 2 3 3 3 3 3 3 3 3 3
3 3 3 3 3 3 2 2 3 3 3 3 3 2 3 3 3 1 1 2 3 3 2 1 1 2 3 3 3 3 1 0 0 1 3 3 3 3 3 3 3 3 3
Wind_Speed
4 3 2 2 3 3 4 5 5 5 4 4 5 5 5 6 6 5 6 6 6 6 6 6 6 5 4 4 4 4 4 4 5 5 5 4 2 3 2 3 3 4 5
6 5 5 4 4 4 5 5 4 4 5 5 5 5 6 6 5 6 6 6 6 6 6 6 6 6 6 5 4 5 5 5 5 6 6 6 5 4 4 4 4 4 4
7 6 6 6 5 5 4 4 4 4 4 5 5 5 6 6 6 6 6 6 6 6 6 6 6 6 6 5 5 5 5 6 5 5 5 5 5 4 4 4 5 4 4
6 6 5 5 5 4 4 4 4 4 5 5 5 6 6 6 6 6 6 6 6 6 6 6 6 7 7 6 6 6 6 6 6 5 5 5 5 6 4 4 4 4 4
5 5 5 5 5 4 4 4 4 5 6 5 5 5 5 6 7 6 4 6 5 5 6 6 8 9 10 8 7 5 5 4 4 5 5 5 5 5 4 4 4 4 4
6 6 5 4 4 4 4 4 5 5 5 5 6 6 7 8 2 2 2 5 6 6 7 7 8 10 12 14 15 12 9 7 6 5 5 6 5 5 4 4 4 3 3
8 7 6 5 5 5 5 4 4 4 5 5 6 6 7 7 7 7 7 5 7 7 7 7 9 11 8 6 9 14 14 15 13 8 8 8 7 6 5 6 5 5 4
9 8 7 6 6 4 4 4 4 4 5 5 6 6 6 8 8 9 10 8 8 9 9 9 9 9 10 8 7 6 7 8 11 11 10 10 10 7 5 5 5 6 6
10 8 7 6 5 4 4 4 4 4 5 6 6 7 7 7 8 11 11 7 8 10 10 10 10 9 10 10 7 7 7 7 10 14 14 14 14 12 7 3 5 5 6
9 8 7 6 5 5 4 4 5 4 5 6 7 7 7 7 8 11 12 7 8 8 7 8 11 12 11 9 7 7 7 7 7 8 7 10 11 12 13 9 7 7 6
6 6 6 6 6 6 5 5 5 6 6 7 7 7 7 9 10 12 14 9 8 8 7 6 4 6 9 10 9 7 8 6 5 6 7 7 7 8 9 9 9 9 8
5 6 6 6 7 6 6 6 6 6 7 8 8 9 8 8 10 11 16 16 12 8 7 7 3 2 5 7 8 9 10 7 6 7 8 8 7 7 8 9 10 10 10
4 5 5 6 6 5 6 7 7 6 8 8 7 7 6 4 5 11 14 16 16 10 8 10 8 7 7 8 13 15 11 8 8 9 9 8 7 7 7 6 7 8 9
4 5 5 6 7 7 6 7 7 7 7 7 6 6 5 4 3 3 5 7 10 10 9 10 13 15 13 12 11 10 9 9 9 9 8 7 6 6 6 6 6 6 7
4 5 6 8 8 7 8 8 9 8 8 7 6 5 5 6 1 2 1 3 3 2 3 6 7 8 8 8 8 9 8 9 10 9 8 8 7 7 6 6 6 6 7
6 6 7 7 7 8 8 9 14 15 15 16 15 11 8 9 8 8 8 8 6 4 4 8 9 9 9 8 8 7 7 8 8 8 8 8 8 7 7 6 6 6 7
7 8 8 9 9 8 8 7 7 9 15 15 16 16 16 15 13 11 10 8 8 6 6 9 10 10 9 8 7 7 7 7 7 7 8 8 7 7 7 7 7 7 7
10 11 10 9 9 10 9 8 7 7 6 5 11 18 19 18 18 17 12 6 8 8 9 10 10 9 9 8 7 7 7 6 6 7 8 8 7 7 8 8 8 8 8
11 10 9 10 10 10 8 8 8 8 6 6 5 6 12 16 16 15 9 8 10 10 9 8 9 8 8 7 7 7 7 6 6 7 7 8 8 8 8 9 8 10 10
10 14 13 11 11 10 9 8 7 6 6 5 5 5 4 5 6 7 8 9 9 9 8 8 7 7 7 7 6 6 6 6 6 7 7 7 8 8 9 10 9 8 9
12 13 16 13 11 9 8 7 6 5 5 5 6 5 4 5 7 6 5 6 6 7 7 7 6 6 6 5 6 7 8 6 6 6 6 7 7 8 8 8 9 9 8
11 12 12 11 10 9 8 7 6 5 6 7 7 5 5 6 6 5 4 4 5 5 5 5 5 6 6 6 5 5 6 6 5 5 6 6 6 7 7 7 8 8 8
12 13 12 10 9 9 8 7 6 5 6 6 6 5 3 4 5 5 4 4 4 5 4 4 5 6 5 5 4 5 5 5 5 5 5 6 6 6 7 8 10 9 9
12 13 13 12 10 8 7 7 6 6 5 6 6 5 4 4 5 5 4 4 5 5 5 5 6 9 10 7 5 5 4 3 3 4 6 6 6 5 6 7 8 10 9
11 11 11 11 10 9 8 7 6 6 5 5 5 4 5 5 5 5 5 5 6 6 7 7 5 7 9 10 8 5 3 3 3 3 3 4 5 6 6 7 7 7 8
11 10 10 9 9 8 8 8 7 7 5 5 5 6 6 6 5 5 5 5 5 6 7 6 7 8 9 8 7 5 3 3 3 3 3 4 5 5 5 5 7 7 8
Wind_Direction
198 205 238 233 242 244 239 239 244 251 263 269 266 262 262 262 258 252 252 260 264 265 268 268 264 265 270 285 294 294 290 281 277 285 291 299 269 269 236 231 243 232 220
190 192 201 219 232 245 254 252 250 251 253 261 264 266 267 268 263 260 261 266 266 268 267 268 267 265 258 259 269 277 280 284 284 283 288 291 279 259 245 236 243 240 223
184 186 198 210 224 232 244 254 257 258 259 264 267 267 269 274 274 270 266 264 264 266 268 268 268 267 263 257 260 266 275 279 282 281 282 276 275 267 255 245 245 239 230
180 187 199 209 224 235 244 250 254 256 257 257 262 265 269 272 273 269 265 264 263 264 264 264 265 262 259 255 256 252 258 267 276 278 276 276 274 268 251 238 247 232 225
181 194 202 205 215 226 240 248 253 259 266 263 266 268 269 269 267 273 269 271 280 280 274 269 267 265 260 253 256 253 260 266 273 276 273 273 271 273 265 248 248 240 223
190 204 205 206 218 228 236 244 248 251 259 264 266 270 270 273 245 195 260 291 291 283 279 275 275 268 257 242 238 242 245 252 260 270 278 279 289 306 320 316 299 276 257
193 204 205 205 218 227 245 254 261 267 268 265 264 265 265 266 251 223 226 253 268 269 269 269 273 273 285 269 238 234 240 243 240 247 264 273 283 293 324 327 321 314 287
196 202 204 206 216 220 231 248 256 259 262 265 266 268 267 267 253 231 225 239 259 261 259 257 257 263 270 275 276 260 243 240 234 232 237 249 259 269 280 290 298 298 285
202 201 203 203 209 218 235 246 253 256 260 262 264 259 259 261 244 227 218 244 254 258 256 255 252 251 251 248 248 255 258 258 257 247 232 235 238 245 249 268 280 283 283
203 197 194 191 197 212 228 237 247 252 260 264 262 257 258 261 251 228 211 239 256 260 259 256 254 251 250 229 230 244 254 258 267 278 261 248 246 246 238 231 241 253 263
197 194 189 186 193 206 220 226 233 245 255 260 265 264 257 254 253 232 213 228 249 261 267 271 271 259 237 225 226 242 253 266 273 270 269 259 246 239 236 225 219 225 237
195 195 193 191 211 215 212 222 230 240 253 257 256 256 251 244 241 229 213 217 233 252 264 271 277 239 226 227 228 242 249 251 257 258 257 254 248 242 235 227 220 217 220
207 207 208 207 212 219 223 233 237 237 247 254 256 259 256 245 231 222 214 217 224 235 256 268 279 259 250 244 241 241 240 239 242 246 249 250 248 246 244 238 235 228 224
227 223 226 228 229 228 229 238 241 243 247 250 254 265 272 267 251 209 204 215 225 234 250 262 260 253 245 249 254 240 228 232 235 240 244 248 250 250 246 239 236 232 230
260 255 255 251 246 241 236 236 239 242 243 248 256 260 268 273 242 141 253 269 275 294 295 274 269 263 253 243 239 236 229 222 226 235 240 244 246 247 246 243 240 233 231
279 268 264 262 256 249 246 245 233 234 240 231 230 237 251 251 251 241 236 238 243 238 254 260 262 262 260 258 252 244 235 230 227 225 228 233 237 238 242 240 232 233 234
298 291 284 279 274 267 259 255 256 244 237 236 234 234 237 248 253 253 250 250 245 213 234 252 255 256 258 257 255 254 250 236 224 222 227 229 230 232 234 237 236 233 230
305 294 286 279 276 273 269 266 265 263 259 246 235 232 235 240 245 249 249 246 250 222 233 245 251 253 255 256 256 254 254 243 226 222 225 227 227 229 232 233 231 230 229
306 296 290 286 281 277 271 266 263 263 262 264 265 246 231 235 241 245 228 229 248 254 248 244 247 252 256 256 254 253 251 247 235 225 225 225 223 225 230 231 229 227 224
303 297 297 294 286 281 276 271 267 266 269 268 267 267 250 235 238 230 211 223 239 252 261 264 261 258 259 258 253 252 250 244 239 233 228 225 224 224 227 230 227 223 219
317 313 307 298 291 285 283 280 276 273 271 275 277 274 264 266 271 269 257 238 242 254 262 267 268 265 261 258 255 254 253 247 241 238 233 227 226 225 223 224 225 222 219
319 313 311 310 309 306 299 287 281 279 277 279 279 269 244 262 277 280 281 281 277 273 274 277 280 277 271 267 263 259 256 250 244 239 235 229 229 229 225 221 220 219 216
318 315 315 312 308 305 300 297 293 288 290 293 290 289 282 285 292 296 298 302 303 300 296 290 284 283 282 278 267 256 253 249 244 243 240 230 229 229 222 221 221 216 212
318 321 321 317 313 309 304 301 298 297 297 295 292 302 311 308 304 311 317 316 311 304 299 295 292 291 292 290 279 266 257 250 249 250 249 241 235 234 228 224 223 216 211
325 327 323 322 323 324 318 312 309 308 310 312 316 328 328 320 318 324 324 315 312 310 308 301 293 293 295 293 291 290 282 265 256 274 263 251 246 241 232 228 222 216 207
328 330 327 324 325 325 323 321 319 320 329 337 338 338 331 324 326 328 319 317 320 316 310 305 302 302 301 298 299 307 289 263 257 266 272 264 258 251 235 229 225 215 201